Aérodrome :
LOGIN :

S'inscrire | Disclaimer

   EN    FR    IT 

 










Légende :    VFR   VFR Marginal   IFR   IFR Intensif   IFR Très Intensif
Visi : 
Plafond : 
>= 8 km
>= 3000ft
5 à 8 km
1000 à 3000 ft
1500m à 5 km
500 à 1000 ft
800 à 1500m
200 à 500 ft
< 800m
< 200 ft
Symboles :   Orages  Brouillard  Fortes neiges  Fortes précipitations  Vent > 20 kt
SIGMETs :   Divers  Orages  Givrage  Turbulence  Onde Orograph.  Cendres Volcan.






- Altitude de l'aérodrome : 65 ft
- Code IATA : PMO


LICJ - Palermo Punta Raisi

DERNIER METAR :
  • 010720Z 25005KT CAVOK 30/22 Q1011

METARs EXPIRÉS :
  • 010650Z 19003KT 160V240 CAVOK 31/19 Q1011
  • 010620Z VRB03KT CAVOK 29/22 Q1011
  • 010550Z VRB02KT CAVOK 29/21 Q1011
  • 010520Z 23005KT CAVOK 29/19 Q1011
  • 010450Z AUTO VRB03KT 9999 NCD 28/23 Q1011

TAF TAF LICJ
Valide du 01 à 06h jusqu'au 02 à 06h UTC


010500Z 0106/0206 VRB05KT CAVOK
BECMG 0108/0110 29014KT
BECMG 0117/0119 VRB05KT



MET'MAP, la Météo Aéronautique d'un coup d'oeil ! - Copyright ORBIFLY Décembre 2007 - Disclaimer

ORBIFLY MET'MAP TEAM :

Programmation & Développement : Alexandra Zaïnal
Sur une idée originale de : Baudouin d'Aumeries
Assistance à la programmation : Marc-Olivier Méhu
Soutien technique & logistique : Manuel Goepfert

Contact : metmap@orbifly.com




SOURCES & CREDITS :

   NOAA